Location: Favalello
(42.2939°N, 9.2706°E)
Time: 22:30:16
(UTC+00:00)

SeaSat 1 - Pass Details

Date: 06 December 2019
Orbit: 744 x 747 km, 108.0° (Epoch: 17 January)

Event Time Altitude Azimuth Distance (km) Brightness Sun altitude
Exits shadow 18:14:09 17° 358° (N) 1,815 4.4 -25.8°
Drops below altitude 10° 18:15:26 10° 350° (N) 2,269 5.0 -26.0°
Sets 18:17:51 0° 342° (NNW) 3,197 5.9 -26.5°
